Skip Page Navigation
NASA JPL Caltech
NASA Logo - Jet Propulsion Laboratory + View the NASA Portal
+ Near-Earth Object (NEO) Program
Search JPL
JPL Home Earth Solar System Stars & Galaxies Technology
JPL Solar System Dynamics
BODIES ORBITS EPHEMERIDES TOOLS PHYSICAL DATA DISCOVERY FAQ SITE MAP
JPL Small-Body Database Browser
Search: [ help ]  
11570 (1993 LE)
Classification: Main-belt Asteroid          SPK-ID: 2011570
Ephemeris | Orbit Diagram | Orbital Elements | Physical Parameters | Discovery Circumstances | Close-Approach Data ]

[ show orbit diagram ]
Orbital Elements at Epoch 2457000.5 (2014-Dec-09.0) TDB
Reference: JPL 6 (heliocentric ecliptic J2000)
 Element Value Uncertainty (1-sigma)   Units 
e .09018455856349621 5.7531e-08  
a 3.0197414633687 3.8753e-08 AU
q 2.747407412518908 1.8149e-07 AU
i 11.94390691566453 6.3592e-06 deg
node 131.6049215520374 2.9326e-05 deg
peri 146.507421419759 5.1212e-05 deg
M 24.89280092159263 4.7425e-05 deg
tp 2456867.966906435401
(2014-Jul-29.46690644)
0.00025153 JED
period 1916.695265974232
5.25
3.6896e-05
1.01e-07
d
yr
n .1878232843743247 3.6155e-09 deg/d
Q 3.292075514218492 4.2247e-08 AU
  Orbit Determination Parameters
   # obs. used (total)      1085  
   data-arc span      7712 days (21.11 yr)  
   first obs. used      1993-06-14  
   last obs. used      2014-07-26  
   planetary ephem.      DE431  
   SB-pert. ephem.      SB431-BIG16  
   condition code      0  
   fit RMS      .53471  
   data source      ORB  
   producer      Otto Matic  
   solution date      2014-Oct-09 14:20:55  

Additional Information
 Earth MOID = 1.74085 AU 
 T_jup = 3.208 
[ show covariance matrix ]

Ephemeris | Orbit Diagram | Orbital Elements | Physical Parameters | Discovery Circumstances | Close-Approach Data ]

Physical Parameter Table
Parameter Symbol Value Units Sigma Reference Notes
absolute magnitude H 12.6 mag n/a MPO263453  

11570 (1993 LE)          Discovered 1993-Jun-14 by Holt, H. E. at Palomar (675)
Reference: 19990928/Numbers.arcLast Updated: 2004-04-19

[ show close-approach data ]
Alternate Designations
 1993 LE = 1997 CD1 
Ephemeris | Orbit Diagram | Orbital Elements | Physical Parameters | Discovery Circumstances | Close-Approach Data ]
ABOUT SSD CREDITS/AWARDS PRIVACY/COPYRIGHT GLOSSARY LINKS
FirstGov 2014-Nov-01 04:11 UT
(server date/time)  
NASA Home Page
Site Manager:   Donald K. Yeomans
Webmaster  Alan B. Chamberlin